Terminal Aerodrome Forecast
Issued by NWS Twin Cities, MN

Home | Current Version | Previous Version | Text Only | Print | Product List | Glossary Off
Versions: 1 2 3 4 5 6 7 8 9 10 11 12 13 14 15 16 17 18 19 20 21 22 23 24 25

000
FTUS43 KMPX 142000 AAB
TAFMSP
TAF AMD
KMSP 142059Z 1421/1524 27011G17KT P6SM FEW050 SCT150 BKN250
     FM142300 29009KT P6SM BKN120
     FM150200 32004KT P6SM -RA SCT040 OVC060
     FM151200 33005KT P6SM BKN050
     FM151800 32009KT P6SM FEW060=

USA.gov is the U.S. government's official web portal to all federal, state and local government web resources and services.